Presure
183 334 322 298 319 336 347 347 342 342 338 341 339 324 286 296 314 198 273 312 84 258 266 234 184 212 201 190 184 178 168 166 157 155 151 161 137 147 138 141 149 153 117 125 136
136 251 315 327 345 362 366 353 343 339 336 340 343 344 324 330 307 299 306 271 166 257 257 122 232 187 162 155 180 197 166 170 166 145 153 159 158 145 144 143 142 149 151 144 122
185 226 312 325 372 370 362 363 420 465 391 341 325 343 343 328 286 319 306 284 180 258 261 261 214 209 215 187 174 161 160 134 163 161 163 166 135 154 154 148 150 144 147 143 155
196 123 313 381 375 386 504 509 469 476 497 518 531 367 345 297 335 310 298 303 271 261 254 253 222 181 166 166 196 187 182 177 146 167 166 149 153 141 155 151 142 158 132 142 142
211 238 319 388 380 497 462 475 464 458 454 469 483 508 416 345 320 310 319 296 280 321 260 253 264 262 196 206 151 194 182 188 177 155 180 163 136 158 154 148 148 147 143 144 140
127 285 322 388 491 494 464 445 443 443 442 425 438 459 466 423 336 331 241 305 304 315 327 248 252 268 265 206 167 139 186 178 180 173 163 173 161 128 156 148 147 147 142 146 143
123 327 323 385 389 480 440 433 426 452 435 407 409 424 441 455 372 343 316 309 296 306 332 334 253 251 273 258 206 196 203 193 188 185 69 187 152 155 158 150 154 149 151 148 143
149 213 322 379 490 458 424 423 453 432 433 426 420 406 420 439 467 344 298 287 304 284 274 318 284 267 262 279 216 203 200 201 182 189 188 179 186 176 174 156 154 150 152 151 147
99 213 320 373 480 463 436 446 448 421 413 429 392 407 419 443 457 444 336 284 301 295 325 278 271 302 269 267 241 206 196 197 183 127 134 158 182 178 158 166 158 158 102 144 152
365 218 320 383 488 459 450 439 451 429 413 415 398 405 425 443 463 492 359 301 277 294 285 291 311 296 267 266 272 232 202 202 177 190 196 146 159 186 171 178 172 162 138 147 156
333 218 329 376 395 497 468 444 428 416 423 415 409 418 410 447 473 485 421 340 276 295 304 294 315 332 305 194 260 264 226 198 199 183 200 197 191 159 187 178 174 187 170 160 157
326 135 335 366 386 435 528 515 479 462 443 443 438 437 450 455 471 419 327 342 382 269 301 286 300 316 317 323 265 270 225 220 204 194 203 201 184 192 180 185 186 175 179 175 134
316 134 328 351 382 402 432 470 385 364 365 398 454 446 446 469 389 350 354 354 321 318 266 311 281 320 291 309 359 272 262 223 222 183 189 200 200 195 191 185 187 190 180 174 176
319 327 326 319 361 385 378 382 367 358 353 343 344 357 423 360 333 334 321 297 284 290 296 300 274 289 310 302 347 365 268 249 225 212 190 191 185 196 196 190 187 188 189 187 174
182 207 345 334 340 344 378 395 380 360 348 361 329 344 353 332 323 321 315 301 316 310 265 285 331 290 287 298 337 344 357 262 218 213 212 197 187 196 199 195 190 189 176 172 172
268 209 336 331 336 335 382 370 335 321 337 319 360 315 324 337 331 331 328 307 298 319 326 273 283 302 309 303 300 333 359 264 250 226 217 211 197 190 197 197 193 194 194 189 186
347 298 309 332 323 325 338 342 320 351 353 330 325 347 314 339 329 320 301 296 306 304 320 326 276 298 291 293 324 294 357 359 261 245 232 224 208 205 216 192 187 194 183 176 177
365 301 194 318 312 324 319 327 309 338 358 331 311 307 302 297 292 295 295 295 307 307 322 311 323 271 300 283 293 320 322 362 337 253 235 228 225 206 196 226 213 201 193 194 187
219 272 328 315 311 317 318 327 315 300 292 318 329 310 300 281 293 303 283 280 281 289 292 295 315 311 276 304 307 302 306 349 356 319 246 233 230 228 225 205 197 215 213 193 193
121 350 207 311 312 320 319 310 341 318 297 287 293 306 305 289 292 297 303 292 300 297 289 302 315 314 315 319 314 337 333 332 338 336 296 239 238 232 229 232 217 213 209 207 194
184 296 272 122 312 315 310 310 329 309 310 290 280 281 297 292 282 280 290 296 298 297 289 288 288 300 299 307 308 328 335 327 329 334 319 292 236 246 247 235 233 225 226 223 220
201 273 280 319 318 315 312 315 305 326 320 320 302 300 289 288 288 285 296 283 273 271 289 280 277 281 273 280 284 312 305 324 329 309 327 313 287 239 241 255 249 232 225 221 222
175 313 285 329 315 313 316 307 293 297 317 328 320 314 311 311 300 294 292 286 283 295 287 275 284 291 301 289 283 291 295 294 296 303 324 318 301 270 265 259 230 248 244 238 232
171 313 365 336 320 312 312 316 297 294 281 278 284 287 286 294 295 291 294 283 276 273 285 266 265 264 266 263 263 263 265 272 281 275 292 302 300 276 265 260 265 257 252 247 244
171 336 357 333 128 314 312 314 296 292 285 280 270 271 262 278 284 284 286 286 283 275 273 268 266 257 259 264 267 268 267 275 259 262 271 284 289 271 262 254 258 260 257 255 254
168 407 296 125 121 325 307 306 310 299 290 291 278 271 266 272 280 298 288 303 299 291 281 264 256 274 261 263 261 265 267 268 269 277 277 260 279 285 261 254 253 252 254 254 246
289 285 158 349 336 319 320 297 300 305 291 281 279 278 271 262 258 256 259 284 290 300 285 281 278 275 273 263 263 261 261 259 261 263 270 276 267 283 282 265 253 251 249 247 249
Wind_Speed
70 63 62 59 61 58 56 55 54 55 54 55 54 54 65 68 70 59 89 84 22 115 117 113 89 111 107 104 98 96 87 95 96 91 91 92 69 81 63 68 79 81 49 66 56
66 67 68 66 62 61 59 55 55 55 58 60 63 64 63 64 73 75 82 99 63 117 118 49 118 96 75 74 93 107 87 96 101 86 83 91 91 75 78 75 74 67 79 76 51
76 67 72 71 64 62 61 60 67 65 70 69 67 70 72 70 79 74 82 96 56 118 119 122 101 109 115 100 89 77 85 81 101 99 96 100 59 93 91 83 84 70 72 73 82
75 63 78 71 69 68 53 46 49 49 41 35 38 71 78 80 73 83 87 93 108 121 120 117 106 83 79 78 110 105 109 104 73 97 104 77 93 59 93 87 69 85 60 86 73
81 74 83 74 74 45 47 36 31 30 27 21 21 23 58 80 81 88 83 96 105 98 123 119 122 124 97 113 77 112 109 113 97 80 106 99 61 92 91 78 80 84 86 77 71
64 82 85 78 46 32 28 27 24 26 16 15 10 14 29 55 89 84 59 96 97 93 96 116 120 125 127 114 84 76 112 100 99 98 89 113 97 44 93 83 85 89 75 80 79
63 90 89 79 70 23 22 23 25 17 13 23 22 21 23 32 99 86 88 92 99 96 84 80 123 120 125 127 116 116 119 113 105 113 17 115 72 93 95 88 96 87 90 88 79
66 75 92 81 25 18 28 26 20 9 10 13 11 24 28 35 44 90 103 101 96 102 108 83 104 127 124 125 116 118 116 117 100 116 114 104 111 108 105 95 93 87 93 91 84
30 75 93 80 30 21 25 21 9 6 5 14 15 17 23 26 36 62 88 103 95 98 73 108 117 111 126 124 114 112 104 113 101 65 67 87 109 101 76 101 99 99 43 75 92
86 74 92 78 33 29 21 17 8 4 4 7 13 14 15 20 26 42 89 101 98 98 102 104 91 109 121 122 122 122 112 117 100 115 122 78 89 107 91 97 104 100 79 85 95
83 73 93 81 70 29 21 14 13 11 6 3 5 8 11 17 22 40 62 80 102 92 91 94 81 69 98 79 120 125 127 114 122 107 124 120 118 77 109 96 92 105 103 101 98
82 58 94 82 75 58 34 20 14 7 12 6 8 13 15 26 47 61 62 49 71 98 85 99 82 68 82 85 118 122 123 125 119 111 118 122 106 115 102 109 107 95 101 105 60
86 54 94 83 73 55 62 46 53 41 50 56 29 26 29 44 68 62 60 50 47 64 96 71 93 59 93 89 57 115 121 125 122 103 110 116 120 116 114 110 108 109 101 95 101
77 78 86 86 69 58 53 43 37 35 37 43 50 54 45 74 70 72 72 79 88 83 85 69 92 82 66 81 56 54 116 125 120 123 110 108 103 116 117 116 106 104 106 107 98
81 54 70 74 67 63 44 40 38 38 45 47 35 47 51 72 60 65 78 81 47 72 78 73 42 73 81 79 51 61 64 120 117 122 118 111 102 113 116 117 117 111 91 91 96
100 51 68 71 63 59 38 34 36 38 38 38 41 30 34 43 44 53 56 54 63 48 51 81 74 61 40 64 77 55 49 115 122 121 118 117 109 105 113 116 111 113 113 107 103
74 65 58 62 65 58 48 37 44 23 40 40 39 40 33 36 44 45 50 53 40 49 44 48 73 58 66 68 40 73 45 56 117 121 121 119 109 109 119 104 103 111 100 91 92
63 74 50 64 64 53 50 45 42 31 42 35 27 39 42 39 36 37 37 36 31 32 30 40 47 66 53 66 63 45 56 52 75 113 116 120 117 103 102 118 121 116 108 109 102
85 59 58 58 57 50 45 38 33 34 32 19 33 25 33 20 30 30 37 38 40 34 35 38 34 42 58 50 51 54 53 35 58 80 114 119 118 114 113 108 108 116 120 108 107
46 52 51 47 49 42 38 36 22 21 24 24 17 23 34 22 24 25 30 33 33 34 34 27 29 30 31 31 38 29 35 43 45 67 86 112 119 119 116 116 109 110 109 113 104
82 44 62 43 44 38 37 31 23 19 13 13 15 10 9 12 6 8 17 25 29 29 28 28 31 31 30 28 28 24 33 37 40 53 72 86 107 111 118 118 112 108 108 110 112
88 41 36 39 38 32 29 24 24 16 11 10 8 9 6 9 12 16 22 15 16 19 28 26 27 28 28 30 29 15 18 23 36 44 61 73 85 105 106 108 116 112 108 106 106
82 98 37 37 39 31 22 22 25 18 12 11 8 7 9 20 19 19 19 18 16 23 24 21 25 26 28 25 21 16 18 18 22 26 39 60 72 84 90 95 103 106 110 113 113
79 97 31 33 34 30 23 15 20 16 16 16 11 9 6 4 6 11 15 15 16 17 26 20 20 20 21 23 23 24 24 26 27 34 30 38 60 74 78 83 83 89 92 97 100
80 78 38 36 38 26 23 16 18 16 14 9 10 8 7 4 4 7 11 18 21 23 25 25 27 25 25 26 25 26 26 27 32 34 35 39 52 68 70 79 80 77 79 80 79
78 34 38 36 37 20 22 20 14 14 13 7 5 5 4 1 2 10 11 18 24 27 28 28 26 36 31 31 29 29 28 30 30 27 34 46 45 61 74 76 75 73 71 70 74
102 43 52 27 24 21 15 20 18 14 16 15 12 8 7 7 5 4 3 9 16 25 25 29 32 32 37 33 32 31 32 33 29 28 26 29 47 47 63 75 70 70 69 70 69
Wind_Direction
340 343 339 335 331 322 308 298 289 279 269 260 249 232 227 222 219 226 210 208 221 213 214 212 217 213 214 215 216 216 217 213 219 223 227 221 230 232 234 237 231 235 231 240 238
329 343 341 338 326 310 300 294 284 274 264 257 251 245 226 220 216 214 212 209 211 214 214 224 213 216 220 224 217 214 218 214 213 223 228 225 222 229 234 236 239 233 234 244 236
345 343 343 339 321 315 308 298 283 274 263 252 247 238 236 217 217 209 212 211 223 212 214 214 219 214 212 218 219 218 217 227 215 221 223 222 228 225 226 231 232 240 238 244 238
346 340 345 330 327 318 296 293 284 277 275 269 259 236 231 215 215 210 209 211 210 210 215 215 218 221 219 221 215 216 215 218 229 219 222 225 222 233 226 230 239 228 241 238 244
348 346 349 335 331 309 305 298 293 289 279 276 250 246 227 222 218 206 206 212 209 211 213 216 217 216 217 213 219 215 217 217 220 225 219 227 232 227 227 233 235 233 236 245 248
331 351 351 341 321 309 298 305 298 293 272 259 242 230 224 219 214 206 206 207 210 210 212 215 217 217 216 214 218 224 217 221 218 221 225 221 227 225 226 233 234 235 241 240 245
336 355 353 345 343 315 312 316 310 287 238 245 234 214 216 220 213 209 201 204 209 209 208 211 216 217 218 215 213 215 216 220 219 219 213 222 229 229 227 231 231 237 236 238 244
336 348 355 350 346 334 336 325 316 287 251 234 228 223 218 217 210 207 203 208 205 210 210 211 215 216 218 216 216 215 216 218 220 222 223 225 225 226 225 231 233 237 238 239 245
352 350 358 354 355 330 332 329 323 303 292 224 223 218 223 222 210 203 203 207 204 207 209 212 214 215 215 216 218 217 218 217 221 219 223 224 227 227 228 225 232 234 239 245 242
356 350 360 1 360 357 353 348 349 328 306 212 202 220 228 224 208 191 203 202 209 207 211 211 214 214 215 216 216 214 216 217 222 223 225 225 231 229 231 228 227 233 235 238 242
356 352 2 4 5 10 4 1 8 19 18 218 213 205 189 188 175 166 193 204 209 206 209 213 215 214 218 218 216 216 214 218 219 222 225 226 227 228 231 232 231 230 233 238 242
356 348 2 5 12 43 32 27 29 32 62 91 142 140 156 144 145 150 177 186 203 213 210 213 212 213 216 217 216 216 216 216 219 221 224 226 231 230 232 234 234 233 232 234 246
357 351 2 5 12 24 51 55 84 75 73 65 106 117 131 145 132 144 165 159 187 204 215 209 217 208 217 218 217 215 216 219 219 224 225 226 228 231 232 236 236 235 237 238 239
357 0 1 5 12 19 41 83 78 74 79 85 89 84 98 137 147 147 157 176 197 202 209 206 217 216 215 219 217 219 216 219 219 221 225 226 228 231 232 236 240 239 238 238 243
1 351 0 3 10 15 31 88 79 81 76 74 102 109 120 148 161 167 172 186 170 194 217 210 185 215 220 220 220 218 217 218 220 222 224 227 227 231 232 234 238 241 240 239 241
352 357 359 1 8 15 39 78 43 23 86 87 73 110 122 128 150 171 181 188 198 182 185 218 216 209 212 222 221 220 218 218 219 224 225 227 227 229 233 235 238 240 242 244 246
359 357 358 359 4 11 24 40 30 65 107 98 98 121 109 103 129 140 164 182 180 196 182 188 220 211 219 224 220 220 216 218 220 222 226 230 229 228 231 235 238 240 242 243 245
355 352 5 358 1 7 13 33 35 74 115 110 105 119 118 119 143 156 166 174 167 173 173 194 190 224 211 226 228 227 221 219 218 223 227 231 232 229 231 234 236 240 242 244 246
354 354 355 357 359 1 11 32 36 35 35 84 120 120 129 148 153 156 180 192 199 188 195 197 192 205 225 225 229 233 234 222 219 219 225 230 234 235 234 233 236 238 241 244 247
346 351 356 355 356 356 8 15 52 54 31 32 43 116 138 153 162 161 169 192 183 190 211 198 190 198 203 210 224 220 228 228 223 219 223 228 231 235 237 238 237 237 240 243 246
352 349 351 357 355 354 355 10 38 46 65 41 15 29 169 173 231 220 198 181 181 190 199 207 212 201 209 214 219 209 211 224 223 222 222 225 232 235 237 239 241 242 243 243 245
351 343 342 341 348 351 346 2 12 51 80 128 157 198 228 228 223 232 206 221 209 209 197 213 223 228 232 232 228 206 211 222 227 225 224 223 227 234 238 239 241 244 246 247 248
351 353 342 338 338 345 342 342 353 15 64 120 133 148 177 208 218 226 221 221 221 198 198 210 217 223 216 216 219 190 196 205 215 224 231 227 222 230 236 240 242 244 246 248 250
350 354 329 336 330 332 339 328 336 353 2 9 43 62 57 114 184 197 215 226 221 217 203 219 224 227 225 219 221 221 222 216 212 221 221 227 223 225 231 238 241 243 245 248 250
346 349 338 339 353 324 322 323 328 327 340 353 1 15 11 23 276 246 217 222 223 219 220 219 222 224 229 232 227 224 223 223 222 224 223 221 223 222 226 235 239 240 242 245 249
342 323 325 338 353 303 317 314 301 295 304 296 315 324 331 344 169 224 235 226 218 216 209 217 222 227 224 229 231 232 233 222 228 227 224 223 225 227 225 231 237 241 243 243 247
348 333 329 326 308 307 283 311 298 287 284 298 293 266 262 271 258 245 254 241 236 227 222 219 221 226 229 234 237 237 229 226 218 215 215 226 227 227 230 229 234 239 243 245 246